Theta_e
356 357 358 362 363 363 360 359 360 363 361 361 362 361 361 363 364 364 364 365 365 364 364 363 363 363 363 362 363 363 364 364 364 364 364 364 364 364 364 364 363 363 364 364 364 364 364 364 365 365 365 365 365 365 363 363 363 365 366 366 366 366 366 366 365 365 366 365 364 364 365 365 365 364 364 363 364 363 363 362 361 360 358 360 364
355 358 359 361 364 364 361 359 362 362 361 361 360 360 362 361 362 364 364 363 363 363 363 363 363 363 363 363 363 363 363 364 363 363 363 364 365 365 365 364 364 364 364 363 363 363 363 364 364 364 364 364 364 364 364 364 364 364 364 365 365 365 365 365 365 366 365 364 363 362 363 363 364 364 364 363 363 364 364 363 361 358 357 361 363
358 358 360 362 363 364 358 361 362 362 363 362 362 360 359 360 362 363 364 364 363 363 363 363 363 363 363 363 363 363 363 364 363 363 364 363 363 363 363 363 363 363 363 363 363 363 364 364 364 364 365 365 365 364 364 364 364 364 364 364 365 365 365 365 365 366 366 364 365 364 364 363 362 362 363 363 363 364 363 363 361 363 359 363 362
356 358 360 362 364 363 358 361 363 363 363 362 363 361 362 362 362 364 364 364 364 364 364 363 364 364 364 363 363 363 364 363 363 364 364 363 364 364 364 364 364 364 363 363 363 364 364 364 364 364 364 364 365 364 364 364 364 364 364 365 365 365 365 364 364 365 365 365 364 364 362 355 359 362 362 362 362 362 364 363 362 362 362 362 363
357 358 359 359 360 363 362 363 364 363 363 363 362 364 365 365 361 362 363 364 363 363 363 363 363 363 363 363 364 363 363 363 363 363 364 364 363 363 364 363 363 362 363 363 364 363 364 365 364 363 363 362 362 363 363 363 364 364 364 364 364 364 364 364 363 364 364 364 364 362 353 354 355 362 363 363 363 364 364 364 363 361 361 361 361
357 358 359 358 359 363 363 363 364 363 363 362 362 363 364 364 364 364 364 363 363 363 363 363 363 363 363 364 363 364 364 364 364 364 362 362 362 363 363 364 362 363 363 364 364 364 364 365 364 364 364 363 362 362 361 361 362 363 363 363 364 364 363 363 364 364 363 363 363 356 353 354 356 359 364 362 362 363 364 364 363 361 361 361 361
358 359 360 360 359 362 362 362 364 362 360 362 362 364 363 364 364 364 364 363 363 363 363 363 363 362 362 362 363 364 364 364 364 363 363 362 362 363 363 364 364 363 364 364 364 364 364 365 365 365 365 364 364 363 363 363 361 360 361 362 363 363 363 363 362 362 361 359 349 351 352 355 355 358 362 363 363 363 364 363 363 362 362 361 362
359 359 359 360 360 362 364 361 361 362 361 361 363 364 364 364 364 363 363 363 363 363 363 362 362 362 362 362 361 361 362 362 362 362 362 363 362 362 362 362 362 363 363 364 364 364 364 365 365 365 365 365 365 365 363 363 363 362 360 359 360 361 362 362 362 361 361 352 350 351 351 353 355 357 361 362 363 363 362 362 362 362 362 362 362
356 358 359 359 361 363 363 364 361 361 359 359 363 364 365 363 364 363 363 363 363 363 362 363 362 363 362 362 362 361 362 362 362 362 362 362 363 362 362 362 362 363 363 363 364 364 364 365 365 365 364 365 365 365 364 364 364 363 363 361 359 359 359 360 360 361 362 355 352 350 350 352 355 354 360 361 362 362 361 360 360 361 362 363 363
356 357 358 359 360 363 362 363 363 363 362 363 364 364 365 363 364 364 364 363 363 363 363 363 363 363 363 362 362 362 362 361 362 362 363 362 362 362 362 362 362 362 362 364 364 364 364 365 364 364 364 364 364 364 364 364 364 364 364 363 362 361 361 361 360 360 358 356 353 351 352 360 355 355 359 361 360 360 360 362 363 359 359 360 363
356 356 358 360 362 364 363 362 362 363 364 362 362 365 364 364 362 363 366 363 363 363 363 363 363 362 362 362 362 362 362 362 362 362 362 362 362 362 362 361 362 363 363 364 363 363 364 364 364 363 363 363 363 364 364 364 365 365 364 364 363 362 362 362 363 357 359 353 353 352 359 362 352 352 360 360 359 359 360 361 361 361 360 359 360
357 357 359 361 363 364 364 364 363 363 363 363 363 363 362 363 362 363 366 364 363 363 362 362 362 362 363 363 363 363 363 363 362 362 362 362 362 362 362 362 361 362 362 363 363 364 364 364 364 364 364 364 364 364 364 364 364 365 365 365 365 363 363 363 362 357 357 351 351 352 357 357 353 357 360 359 358 359 358 360 360 359 357 357 359
357 359 360 362 363 364 364 364 363 362 363 362 364 363 363 362 364 364 364 364 364 363 362 362 362 362 362 362 362 362 362 363 363 363 363 363 362 362 362 362 361 362 363 363 363 363 363 363 363 363 364 364 364 364 364 364 364 365 365 365 365 365 365 365 363 359 356 350 353 355 354 353 354 362 360 358 358 358 359 359 359 358 358 357 357
356 358 360 362 362 364 364 364 364 364 363 363 363 363 363 363 363 364 364 364 363 363 363 362 363 363 363 362 362 363 363 363 364 364 363 363 363 362 361 361 361 362 362 363 363 363 362 362 363 363 363 364 364 364 364 365 364 365 364 364 365 366 367 367 367 361 359 351 355 353 353 356 352 361 358 357 358 358 358 359 358 357 358 357 358
357 359 360 361 361 362 365 364 364 364 363 363 362 363 363 363 363 364 364 363 364 363 363 363 363 363 362 362 363 363 363 363 363 364 363 363 363 363 361 361 361 361 361 362 362 362 362 363 363 363 365 363 365 365 365 365 366 365 365 366 366 367 368 363 363 359 355 354 354 355 353 353 360 359 359 359 358 358 358 358 357 357 357 356 356
359 359 360 359 360 361 361 364 364 363 363 363 363 362 363 363 363 363 363 362 363 363 363 363 363 364 364 364 363 363 363 363 364 364 364 363 363 363 363 362 362 362 362 362 362 363 363 364 364 365 364 366 365 365 365 365 366 366 366 367 367 368 366 367 358 352 352 353 354 354 352 355 360 360 360 359 358 357 358 359 359 358 358 358 358
358 360 358 358 359 358 359 360 362 364 363 363 363 363 362 363 363 363 363 362 363 362 363 363 363 364 364 365 363 364 363 363 364 364 363 363 362 363 362 362 362 362 363 362 362 363 363 364 365 364 366 364 366 365 365 365 366 367 368 368 369 368 367 366 357 349 351 355 356 353 353 355 360 360 359 358 359 359 359 359 359 359 358 358 358
357 358 357 357 356 357 359 358 358 358 358 362 363 363 363 363 362 362 363 363 363 363 363 363 363 364 365 365 365 364 364 363 364 363 363 363 363 363 362 363 362 363 362 363 363 362 363 363 365 365 365 366 366 367 367 368 369 369 370 370 368 368 368 366 357 351 354 359 353 357 356 362 361 360 360 359 359 360 359 359 360 360 359 358 358
356 356 356 356 355 356 356 357 358 357 357 357 357 360 363 363 362 362 363 363 362 363 363 363 364 364 365 365 365 365 364 363 364 363 363 363 363 363 362 362 362 362 362 363 362 363 363 363 364 365 365 367 368 369 369 370 371 371 370 370 370 367 368 368 360 347 357 354 353 355 354 362 361 361 360 360 360 359 359 360 360 360 359 359 359
354 355 355 355 355 355 355 356 356 356 356 356 356 358 362 363 363 363 363 362 361 362 363 361 364 364 364 364 365 364 364 362 364 362 364 363 363 363 363 363 363 363 363 362 363 363 363 363 365 367 369 369 370 370 370 371 370 370 370 369 369 368 363 360 356 347 352 352 356 352 358 362 362 361 360 360 360 360 360 360 359 360 360 360 359
353 353 353 353 354 355 355 354 356 356 356 356 355 357 360 363 362 363 362 361 361 362 362 362 363 362 362 363 363 360 356 357 358 359 362 362 362 363 363 365 365 364 364 363 364 364 364 366 367 369 369 370 370 370 370 369 369 371 370 368 370 367 364 359 347 353 352 356 358 353 361 363 362 361 361 360 360 360 360 360 360 360 360 360 359
349 350 352 353 354 355 355 355 355 355 356 357 357 358 359 361 357 357 358 359 360 361 359 358 362 357 362 360 355 358 357 355 357 361 359 362 363 366 365 364 366 365 366 365 365 366 366 367 368 369 370 371 370 365 366 373 371 371 370 370 365 359 356 346 350 354 356 355 358 357 363 363 362 362 361 360 360 360 361 361 361 361 361 361 361
347 350 351 353 353 354 355 355 354 355 356 356 357 357 357 355 355 356 359 361 360 360 356 358 352 353 355 352 356 357 358 360 361 363 365 365 364 367 366 364 366 365 366 366 366 366 367 368 369 369 371 372 365 360 360 361 364 373 370 354 348 348 346 346 352 355 355 356 356 362 364 364 363 363 361 361 360 360 361 362 362 362 362 362 362
348 350 350 353 354 354 354 354 355 355 355 354 355 355 355 355 355 356 356 356 357 357 355 354 353 352 354 353 355 358 358 355 367 366 364 365 363 366 363 362 364 364 365 365 367 368 368 368 370 371 374 372 363 361 361 359 358 361 351 349 347 348 347 349 351 352 354 361 357 365 365 365 364 363 362 361 360 362 362 363 363 363 363 363 362
350 352 353 352 353 354 354 354 355 355 354 355 355 354 355 355 354 354 354 354 353 354 354 354 354 354 352 355 354 358 358 356 356 357 356 354 354 354 354 354 355 353 365 356 356 356 361 358 358 365 363 365 364 361 360 356 359 358 349 348 350 346 349 352 350 351 354 357 361 366 365 365 364 363 362 362 362 363 364 363 363 363 363 363 363
352 350 351 352 353 355 355 354 354 354 354 354 353 356 356 353 353 354 353 353 354 353 354 354 353 353 352 354 356 355 354 355 354 355 355 351 349 348 348 347 348 353 357 355 354 356 356 357 358 358 359 361 359 358 357 357 353 350 348 349 350 349 348 347 351 351 352 353 360 366 366 365 365 364 363 364 364 364 365 365 364 364 364 365 364
350 350 352 353 354 355 355 355 354 353 353 354 354 357 353 353 353 354 353 352 353 353 354 353 354 354 353 357 356 352 352 352 354 353 352 350 349 347 344 347 347 348 353 355 355 356 356 357 357 356 355 353 353 351 352 351 349 347 347 349 350 351 352 352 351 352 354 355 361 367 366 366 365 365 366 366 366 366 366 366 366 365 365 366 365
349 350 352 354 354 354 356 355 354 354 353 353 354 354 352 353 354 360 356 358 356 354 354 353 355 355 355 355 359 352 352 352 353 352 352 350 350 350 347 349 351 354 353 360 356 355 356 357 357 355 353 351 348 345 347 343 343 345 347 348 349 349 350 352 353 353 352 357 361 367 367 367 366 366 367 368 367 367 367 367 366 365 365 366 366
347 348 351 353 354 355 356 355 355 354 353 354 353 352 353 353 356 355 353 362 354 354 354 355 355 355 356 356 357 354 352 353 351 350 350 349 350 352 353 350 352 353 355 351 351 349 350 353 354 353 350 349 343 342 344 343 343 345 344 344 345 345 345 346 347 347 349 350 355 365 370 369 369 368 368 368 368 368 368 368 367 366 366 366 367
347 348 350 352 353 355 355 355 355 354 354 354 353 352 353 353 354 354 353 359 354 355 357 355 354 355 355 355 358 356 354 352 351 351 348 348 352 352 352 350 351 351 355 349 350 351 350 349 349 349 348 347 346 348 343 343 344 344 344 344 344 346 345 346 346 345 345 348 349 357 369 371 370 370 369 369 368 369 370 369 369 368 367 367 368
347 346 348 350 353 353 354 355 355 357 355 354 353 353 354 352 354 353 355 355 354 358 358 356 356 356 356 355 356 359 358 356 355 354 347 351 351 351 349 353 352 354 355 354 354 355 354 352 351 347 344 344 344 346 343 344 344 346 349 348 350 348 348 349 349 348 353 346 346 349 355 363 372 373 372 371 370 369 369 370 370 369 369 368 369
345 346 347 350 352 352 353 354 355 356 355 354 356 353 353 353 355 353 353 354 356 354 354 354 360 355 356 355 356 357 362 359 357 356 350 350 349 348 349 352 352 354 356 355 354 358 359 359 356 353 350 346 345 345 347 344 343 344 346 348 353 348 346 347 349 349 349 347 345 345 349 357 365 371 374 373 372 371 370 369 370 370 369 369 369
345 347 348 349 350 350 351 353 355 356 354 354 355 354 353 354 355 353 354 357 354 353 353 352 353 354 353 354 355 358 362 360 358 356 360 349 348 348 349 355 354 352 357 359 358 356 352 352 353 353 349 348 348 348 350 345 343 344 346 349 351 348 349 346 345 345 345 346 346 345 346 350 352 358 368 375 374 373 373 371 370 370 371 369 369
344 346 348 348 350 351 352 353 355 354 354 354 354 353 353 354 356 354 358 354 352 352 354 351 353 353 351 352 354 359 361 359 358 354 353 349 348 347 348 350 352 353 356 362 357 354 350 353 354 353 363 350 346 349 345 343 346 346 345 348 348 348 347 347 345 344 343 342 344 345 345 346 346 347 351 360 370 375 375 374 372 371 371 370 369
346 346 346 348 350 350 352 352 355 353 355 354 354 353 353 354 354 354 355 353 352 352 352 351 351 351 351 350 354 357 359 359 358 354 351 349 349 350 351 351 354 359 354 359 354 354 354 353 357 352 353 351 349 353 348 345 344 343 344 348 348 349 348 348 348 346 345 343 343 343 344 345 345 346 348 347 356 363 369 375 375 373 371 371 370
345 346 347 349 350 352 354 351 353 351 352 353 352 353 353 353 353 357 354 353 353 352 351 351 350 350 351 351 353 357 360 358 358 358 350 350 350 351 351 355 359 360 361 361 356 352 351 352 356 355 351 352 353 349 350 344 344 343 343 344 345 350 346 344 344 344 345 344 343 343 345 345 346 345 354 348 348 352 362 370 375 375 373 372 370
345 346 348 349 350 352 353 351 351 350 350 352 351 351 351 351 352 354 352 353 351 351 350 350 351 350 350 351 353 357 359 356 357 357 351 349 351 353 354 357 361 358 361 357 355 360 352 357 352 359 354 349 350 349 350 348 344 344 343 342 343 346 345 343 342 343 344 342 341 342 343 345 348 358 354 353 349 349 358 370 374 376 375 372 371
346 347 348 347 348 350 350 351 351 350 348 348 348 349 349 350 351 351 354 352 352 351 350 350 350 350 351 351 353 356 360 355 356 357 354 350 352 350 352 356 359 360 358 354 354 355 353 351 351 353 357 350 347 347 347 349 347 345 343 342 341 341 341 342 342 351 344 341 341 342 345 348 349 349 347 346 347 347 352 362 374 376 376 373 370
345 345 346 345 345 346 349 353 350 349 346 347 347 348 348 349 350 351 350 350 350 351 350 349 350 350 350 349 352 357 361 355 356 358 355 356 353 353 354 358 361 359 354 351 350 358 359 353 353 353 355 354 349 350 348 349 349 346 343 342 341 340 341 343 348 344 343 344 347 352 355 350 349 349 348 348 348 350 351 350 350 365 373 375 368
345 345 346 344 343 345 348 350 348 349 347 347 348 346 346 347 346 349 348 349 347 349 348 348 350 349 350 349 350 355 357 358 354 356 356 356 351 352 354 356 360 358 355 349 348 349 348 352 353 358 354 352 355 354 353 349 347 346 348 348 344 342 342 345 345 345 348 348 351 353 351 348 348 349 350 350 348 348 349 349 355 356 366 372 372
345 344 344 343 344 345 347 346 345 348 347 346 346 344 343 344 343 346 345 346 345 346 348 348 348 348 349 348 350 356 356 358 357 356 354 364 353 352 355 357 359 358 355 353 353 352 352 353 357 359 356 351 352 352 352 347 342 339 345 348 347 348 352 352 347 346 350 350 351 351 351 351 350 350 350 349 349 350 349 349 351 356 359 361 368
346 345 344 345 347 348 346 345 346 348 348 348 348 345 344 345 343 344 346 345 346 345 344 347 347 348 349 348 350 356 356 356 359 354 356 355 356 356 358 357 357 356 357 361 358 364 358 356 357 353 356 355 349 354 351 345 340 340 336 336 342 345 350 352 347 349 352 353 350 349 349 349 349 350 350 350 349 352 351 355 357 358 359 360 363
347 346 348 348 349 347 346 347 347 348 349 350 349 345 346 348 345 346 346 345 347 348 346 348 350 347 348 349 351 355 356 355 357 358 356 356 358 356 359 358 358 359 359 355 357 356 355 357 356 353 350 351 353 354 350 345 338 345 342 337 332 334 341 345 348 351 353 351 352 350 349 348 350 350 348 348 352 355 358 356 356 356 357 359 359
348 347 348 348 349 349 347 347 348 350 350 351 353 349 349 349 348 348 347 348 346 350 350 352 350 350 350 352 353 355 356 354 357 358 356 356 356 357 359 359 355 359 357 353 353 353 353 354 356 357 351 346 345 346 356 348 343 343 334 334 334 334 330 331 339 345 346 347 346 345 349 348 349 349 352 352 354 355 354 355 356 354 355 357 357
347 347 348 348 349 348 348 348 348 349 351 355 353 351 353 349 350 352 351 350 350 349 347 346 348 350 353 353 354 354 355 354 355 357 359 353 354 356 357 359 357 358 361 357 355 357 355 356 356 354 352 347 344 347 350 352 346 346 340 336 331 329 329 332 338 336 345 343 347 348 347 349 348 350 350 354 355 354 352 354 352 353 353 353 355
347 348 349 351 350 348 349 349 349 350 351 352 353 352 351 347 346 346 344 342 342 343 342 343 343 344 346 354 354 354 355 354 353 354 356 356 354 358 357 358 357 359 363 360 357 356 356 355 356 354 352 352 348 347 347 352 353 351 348 339 337 331 332 336 336 329 340 348 347 349 348 347 348 349 349 354 356 354 359 354 354 352 352 350 352
347 350 351 352 351 349 350 350 350 350 352 353 353 354 348 347 346 345 345 343 341 342 344 344 343 344 348 351 352 352 354 353 353 353 352 356 355 359 359 357 356 355 361 358 356 357 356 355 355 352 351 354 353 343 344 348 349 352 354 351 352 350 342 337 332 335 331 336 341 346 347 347 346 347 349 349 354 358 358 356 355 351 350 350 350
349 349 352 352 351 350 351 351 352 353 352 354 352 352 348 346 345 345 347 344 343 342 345 345 346 348 345 348 350 350 352 352 352 351 351 353 357 358 359 357 355 354 358 359 357 357 357 356 356 352 353 357 351 346 345 347 345 344 359 349 346 350 347 345 342 338 334 330 334 340 349 352 352 350 351 351 353 358 356 352 352 351 350 351 349
354 347 349 352 351 351 351 351 351 351 351 353 352 351 351 347 345 346 345 347 345 345 347 349 346 351 344 345 348 349 349 351 351 350 350 353 361 358 358 357 356 355 361 361 358 357 355 352 354 357 355 357 352 352 349 346 348 347 346 345 349 347 347 348 348 344 337 333 332 335 338 344 344 344 348 355 355 356 356 353 354 356 355 354 351
352 354 351 350 352 352 351 350 350 350 352 352 353 350 350 351 345 345 344 345 349 348 346 345 345 346 344 345 346 347 348 349 350 350 348 355 358 359 359 358 357 358 362 359 357 355 355 354 355 356 355 353 354 357 353 350 351 352 349 347 345 344 341 345 344 344 344 338 332 333 336 338 336 339 348 351 354 355 354 354 353 353 350 349 349
351 351 348 349 350 353 352 349 349 350 352 352 352 349 349 350 347 346 345 345 347 346 345 344 345 345 344 344 345 347 348 348 349 350 348 354 357 360 359 358 358 363 363 358 355 354 355 358 359 358 359 355 355 354 355 355 354 352 351 348 345 344 340 340 341 341 339 336 338 339 340 343 340 339 343 353 357 353 353 352 351 349 350 349 350
Wind_Speed
5 6 4 9 10 11 13 13 10 11 12 11 11 11 10 9 12 13 13 13 13 14 14 15 15 14 14 14 13 13 13 14 14 14 14 14 15 15 16 15 15 14 14 14 14 15 15 14 14 15 15 15 15 17 18 16 13 13 12 11 11 11 11 10 9 8 8 8 6 5 4 4 6 7 10 12 12 12 12 11 9 4 2 6 12
8 5 4 6 10 11 16 13 11 13 12 12 10 11 9 11 12 13 14 14 14 14 14 14 15 14 13 13 13 13 13 13 14 13 13 14 14 15 15 15 14 14 14 13 13 14 14 14 14 14 14 14 14 14 15 15 14 13 12 12 12 12 11 11 10 10 9 7 6 5 4 5 5 6 8 9 9 12 13 12 11 4 1 8 10
8 6 5 7 11 12 16 14 12 12 13 13 13 15 15 15 16 15 14 13 14 14 14 14 14 14 13 13 13 13 13 13 14 13 13 13 13 14 14 14 14 13 13 13 13 13 12 13 13 14 14 14 14 14 13 13 13 12 12 11 12 12 12 12 12 11 10 10 9 8 6 5 5 6 7 7 9 11 13 13 11 8 5 11 10
10 6 5 9 12 13 16 15 15 14 13 12 13 14 15 15 16 15 13 13 14 14 14 14 14 13 13 13 13 13 13 13 13 13 13 13 13 13 14 14 14 14 14 14 14 13 12 12 12 12 12 13 14 14 13 13 12 12 11 11 11 11 11 11 11 10 10 10 9 7 2 2 3 6 8 8 8 10 13 12 11 10 10 10 10
9 7 6 6 5 9 16 15 15 15 15 12 13 13 13 14 14 16 14 14 14 13 14 14 14 13 13 13 13 13 13 13 13 14 13 13 13 13 13 13 12 13 14 14 14 13 13 12 12 12 11 11 12 12 12 11 11 10 10 9 10 10 10 10 10 10 8 9 9 6 2 2 1 6 8 9 11 12 13 13 12 11 11 11 11
8 7 7 7 6 6 14 14 15 15 15 13 11 14 13 13 15 14 14 14 13 13 13 14 13 13 13 12 13 14 13 13 13 13 13 13 12 13 12 13 10 10 13 13 13 13 12 12 12 12 12 12 11 11 11 10 10 9 8 8 8 9 9 9 9 9 8 8 8 4 3 2 2 3 9 10 11 12 12 12 12 11 11 12 11
10 7 7 6 5 7 15 14 14 15 15 15 13 14 13 13 14 14 14 14 13 13 13 13 13 14 14 14 14 14 11 13 11 13 12 12 12 13 12 11 10 11 12 12 12 12 12 11 11 12 12 12 11 11 11 10 10 9 8 8 8 8 8 8 8 7 7 5 2 2 2 3 2 2 7 9 10 11 12 11 12 11 11 11 11
8 6 6 5 4 9 12 15 15 13 13 13 15 14 13 12 14 14 14 14 14 13 13 13 13 13 14 13 13 14 14 13 13 12 12 11 11 11 13 10 11 11 11 10 11 11 11 11 11 11 11 11 11 10 10 10 10 9 8 8 8 7 8 8 7 6 7 3 2 1 1 1 2 2 6 8 9 10 10 11 10 12 12 11 10
8 7 6 6 5 14 13 14 15 17 16 15 15 15 13 13 13 14 14 14 14 13 13 13 12 13 14 14 11 13 12 12 12 11 11 11 10 10 10 10 10 10 9 9 9 9 9 9 9 9 10 10 10 10 10 9 9 9 9 9 8 7 7 7 6 6 5 2 3 2 1 0 2 2 5 7 8 9 10 9 8 9 10 11 11
8 7 7 5 5 15 16 14 14 14 15 16 16 15 14 13 12 13 14 14 14 13 13 12 12 12 12 12 12 12 12 12 11 11 10 10 10 10 9 10 10 9 9 8 8 8 7 7 7 7 7 7 7 7 7 8 7 7 7 7 7 6 5 5 5 3 3 3 3 3 3 5 2 2 4 6 7 7 8 10 6 7 6 9 10
9 7 6 6 7 13 16 16 17 14 14 15 16 16 15 13 13 14 14 14 14 13 13 13 12 12 12 12 12 12 12 12 11 11 10 10 9 9 9 9 10 10 9 8 8 7 6 6 6 6 6 6 5 5 5 5 5 5 5 5 4 4 2 3 2 1 1 4 5 4 6 9 2 1 6 6 5 5 6 9 9 8 8 8 8
9 8 6 5 11 15 14 14 16 13 15 15 15 16 15 14 13 14 14 14 13 13 13 13 12 12 12 12 12 12 11 11 11 11 10 10 9 9 9 9 9 9 9 8 7 6 5 5 5 5 4 4 4 4 3 3 3 3 3 3 2 2 1 1 1 0 0 4 4 3 2 6 3 3 8 7 5 5 7 7 7 7 7 6 7
10 8 7 6 7 13 14 15 16 16 16 16 15 15 15 15 13 13 14 14 14 13 13 12 12 12 12 12 12 12 11 11 11 11 10 10 10 9 8 8 8 8 7 6 6 5 5 4 4 3 3 3 3 3 3 2 2 2 2 1 1 2 2 2 0 0 0 4 4 3 5 4 4 6 7 7 6 6 6 7 7 6 6 7 6
10 8 7 7 6 13 15 15 15 15 15 15 15 14 14 13 14 13 14 14 13 13 12 12 12 12 12 12 12 11 11 11 11 10 10 10 9 9 8 7 7 6 5 5 5 4 4 3 3 2 2 2 2 2 1 1 2 2 1 1 2 2 2 2 1 0 1 3 3 6 4 4 4 8 8 7 7 6 6 6 6 5 5 5 5
11 9 7 6 7 8 15 14 15 15 14 15 14 14 14 15 14 13 13 13 13 13 13 12 12 11 11 11 11 11 11 11 10 10 10 9 9 9 8 7 6 5 4 4 3 3 3 3 2 3 3 3 2 2 2 1 2 2 2 3 3 3 3 0 1 1 2 3 4 6 5 3 8 10 9 8 7 6 5 5 5 4 4 3 3
10 9 7 6 6 6 7 13 15 14 14 14 14 14 14 14 14 14 14 13 13 12 12 12 12 12 11 11 11 10 10 10 11 10 10 9 8 8 7 6 5 4 4 3 3 3 3 3 4 4 4 4 2 2 2 3 3 3 3 3 4 3 3 3 1 1 4 4 4 4 5 3 11 9 9 9 8 6 5 4 4 3 3 2 2
9 8 8 6 6 5 5 6 10 15 14 14 13 13 14 14 14 14 13 13 13 12 12 12 12 11 11 10 10 10 10 9 10 9 9 8 8 7 7 6 5 5 4 3 3 4 4 5 5 5 5 4 3 3 4 4 4 4 5 5 4 4 4 3 3 3 5 5 4 4 5 4 9 9 9 9 8 7 6 4 3 1 1 1 1
9 8 7 7 5 5 5 5 7 6 6 10 13 13 13 13 14 13 13 13 13 12 12 11 11 11 11 10 10 10 10 9 9 9 8 8 8 7 6 6 6 5 5 5 5 5 5 6 6 6 6 5 4 5 6 6 6 6 6 5 5 5 4 3 3 3 4 5 5 5 5 6 10 9 9 8 8 7 4 3 2 2 1 1 1
8 7 7 6 5 5 5 5 5 4 4 4 4 9 14 13 13 13 13 13 12 12 11 10 10 10 10 10 10 10 9 9 9 8 8 8 7 7 6 6 6 6 6 6 6 7 6 6 7 6 6 6 6 6 7 7 6 6 6 5 5 4 5 3 3 3 3 4 5 4 5 9 10 10 9 8 7 5 4 3 3 3 2 1 1
6 7 7 5 5 5 4 4 5 4 3 3 3 4 10 13 13 13 12 12 12 11 11 11 9 9 10 10 10 7 7 6 8 5 8 8 7 6 7 6 7 7 7 7 7 7 8 7 7 7 7 7 7 7 7 6 6 6 6 6 6 6 3 2 3 5 4 4 5 4 6 11 11 10 9 7 6 5 4 3 3 3 3 2 2
5 6 5 5 5 5 5 5 5 5 4 3 3 3 7 12 10 12 12 12 11 11 11 11 9 9 8 8 7 2 0 0 0 2 6 3 6 7 8 8 7 7 7 6 7 8 8 7 7 7 7 8 7 7 7 6 7 6 6 6 7 4 4 3 4 5 5 5 5 5 9 11 10 10 9 8 7 5 4 3 3 4 3 3 3
6 6 5 6 6 5 6 5 5 5 4 4 3 3 4 7 5 4 5 7 9 9 6 3 6 2 8 4 3 1 1 2 2 4 3 3 4 8 8 8 7 7 6 6 7 8 8 8 8 8 8 7 7 3 3 5 7 8 8 6 2 3 3 5 5 5 5 5 5 6 12 12 11 10 10 8 7 6 5 4 3 3 4 5 5
6 6 5 7 6 6 5 6 6 6 5 4 4 3 4 3 4 3 3 7 6 4 2 2 2 3 2 2 2 1 1 1 1 4 3 7 6 8 8 8 7 7 7 7 8 8 8 8 8 8 7 7 3 1 3 3 3 5 2 3 3 2 3 6 6 5 5 5 4 9 14 13 12 12 11 10 8 8 6 5 5 6 6 7 7
8 7 7 5 7 7 6 6 7 7 6 5 5 4 5 4 4 4 3 3 4 4 3 2 3 2 3 3 2 1 0 1 4 5 4 3 5 8 9 8 8 8 9 6 6 7 8 8 8 8 5 3 3 3 4 3 3 4 0 2 3 4 5 6 5 5 5 5 4 12 14 14 13 12 12 12 11 10 8 7 7 8 8 9 8
7 6 6 7 8 7 7 7 7 7 6 6 5 5 5 5 4 4 4 3 4 4 4 3 3 3 3 2 2 1 0 1 2 3 3 3 3 3 3 3 2 3 5 3 4 4 4 4 3 4 3 4 4 4 4 4 3 4 3 3 3 4 4 5 5 5 5 5 6 13 14 14 13 13 14 13 12 11 10 10 10 10 10 10 10
7 7 8 7 8 8 8 7 7 7 6 5 6 5 6 5 5 5 4 3 4 4 3 3 3 3 3 2 1 1 1 2 2 3 3 2 2 2 2 2 2 3 3 5 5 4 4 3 3 3 4 4 5 4 4 4 4 5 3 2 5 3 3 4 5 5 5 5 6 14 14 14 14 14 14 14 13 13 12 11 12 12 12 12 11
8 8 7 6 8 8 8 8 8 7 6 5 5 5 5 5 5 5 5 4 4 4 4 4 4 3 3 2 2 2 2 2 3 3 4 2 3 2 2 1 3 4 5 5 5 5 4 3 2 4 5 4 5 4 4 5 5 5 2 0 1 2 1 0 2 4 5 5 6 16 14 15 15 15 14 14 14 13 13 12 12 12 13 13 12
8 9 8 7 8 10 9 9 8 7 5 6 6 5 4 5 5 6 5 5 5 4 4 4 3 3 2 2 2 2 2 3 3 3 3 2 3 3 3 3 4 5 4 4 4 3 4 4 4 4 4 4 5 5 3 5 4 3 3 2 1 2 2 0 1 2 3 4 4 12 15 15 15 15 15 14 14 14 14 13 13 13 13 13 13
10 10 9 8 9 9 9 9 8 7 6 7 6 5 5 4 5 5 5 6 5 5 4 3 3 3 3 2 2 2 2 2 3 3 3 3 3 2 2 3 2 2 3 2 0 2 2 4 5 5 5 5 5 2 2 1 2 2 4 3 2 1 0 1 2 2 2 4 5 6 14 15 15 15 15 14 14 14 14 14 13 14 14 14 15
12 11 10 8 8 9 10 10 9 7 7 7 6 6 6 6 5 6 6 6 6 5 4 4 4 4 4 2 3 2 2 2 3 3 3 4 3 3 3 2 3 2 1 1 1 1 1 4 4 2 3 2 4 4 4 4 3 3 3 3 3 3 2 1 2 2 2 1 2 3 11 14 14 14 14 14 14 14 14 14 14 14 15 15 15
10 11 10 8 8 9 9 9 8 7 7 7 6 7 6 5 4 4 5 5 5 5 4 4 4 4 4 2 3 3 3 3 3 3 3 4 4 4 3 0 1 1 0 1 2 1 1 2 1 3 4 3 4 3 5 4 3 2 3 3 4 3 4 4 3 3 3 3 3 3 3 10 12 13 13 14 14 14 14 14 15 15 15 16 17
11 12 10 9 9 10 10 10 9 8 8 7 6 6 6 6 4 4 3 3 4 4 3 3 4 4 2 2 3 4 3 4 4 3 3 4 4 2 2 1 2 1 1 2 2 2 2 1 0 3 3 4 4 3 2 3 2 4 2 2 2 4 3 1 2 4 4 3 3 3 4 4 7 11 13 13 13 13 13 14 15 16 17 17 18
9 12 11 11 11 10 10 10 9 8 8 8 6 6 6 6 5 5 4 4 4 3 4 3 4 4 2 1 2 3 4 4 4 4 4 5 3 3 3 3 2 1 2 2 3 3 2 3 3 2 3 3 3 2 1 1 3 4 2 3 3 3 1 2 4 4 4 3 4 4 4 3 3 6 9 11 12 12 13 15 16 17 17 18 18
9 8 10 11 9 8 7 8 8 8 8 7 6 6 6 6 5 5 4 4 4 4 4 3 4 4 3 2 2 4 4 4 4 3 4 4 4 4 3 3 1 2 2 3 2 2 1 3 2 2 1 1 3 3 3 3 2 2 3 2 3 4 2 3 4 4 4 4 4 4 4 3 4 5 3 7 9 11 14 15 17 17 18 18 19
8 9 12 11 11 9 7 7 9 8 8 7 7 6 6 6 6 5 5 5 5 5 4 4 4 5 4 3 3 4 3 3 2 1 3 4 4 3 2 2 1 1 2 2 0 1 0 2 2 2 0 1 1 1 1 2 2 3 4 1 4 4 3 4 4 4 4 3 3 4 3 4 5 4 4 3 5 8 11 14 16 17 18 19 19
11 10 10 10 10 9 9 8 9 9 7 8 7 6 6 6 6 6 5 5 5 4 4 4 3 4 4 3 3 5 3 3 1 1 3 3 3 4 4 2 1 0 1 1 0 2 0 2 1 1 1 1 0 2 1 3 3 5 4 3 4 3 4 5 5 4 4 4 4 3 3 4 5 5 3 3 4 6 11 11 14 16 17 18 18
10 11 10 10 9 9 9 9 10 10 8 8 6 6 6 6 6 6 6 5 5 4 4 3 3 4 4 4 4 4 3 3 1 2 3 4 3 2 3 1 0 1 0 1 1 1 0 1 2 2 1 1 1 3 3 2 3 5 4 4 5 4 5 5 4 4 4 4 5 4 3 4 4 6 3 3 4 5 8 12 11 15 16 13 16
9 10 11 11 11 9 9 8 8 9 8 8 7 6 5 6 5 5 5 5 5 4 3 2 4 4 3 4 4 4 4 3 2 2 3 3 3 2 2 2 1 1 2 2 1 0 1 2 2 2 1 1 2 2 3 3 4 5 4 5 6 5 4 4 4 3 4 5 5 5 6 5 4 4 4 4 5 5 6 7 9 13 14 14 16
8 9 9 8 8 8 6 8 8 7 7 7 6 5 5 4 4 4 4 3 3 3 3 3 3 3 3 3 3 4 3 3 2 2 2 3 3 2 2 2 2 2 2 0 1 1 1 1 1 3 2 2 3 2 3 4 4 5 5 6 5 5 5 4 4 4 5 5 6 5 4 5 4 4 5 5 5 5 5 5 5 5 7 14 14
8 8 8 7 7 6 6 6 7 6 6 6 6 5 5 6 6 4 4 3 3 3 3 3 3 4 4 3 4 4 4 3 3 2 2 2 2 2 2 2 2 3 2 1 1 2 1 1 2 1 4 4 2 3 2 2 3 3 5 5 5 5 6 5 4 4 5 4 4 3 4 5 4 5 5 5 5 5 4 5 5 5 5 8 12
7 9 9 8 8 8 7 8 6 7 8 7 6 7 6 5 3 5 5 5 5 3 3 4 4 4 4 4 4 4 4 4 3 3 3 3 3 2 2 2 2 2 2 3 3 2 1 1 1 1 2 3 2 2 2 0 2 5 3 3 4 3 4 3 4 4 4 3 3 4 5 4 5 5 5 4 5 4 4 3 4 4 5 2 4
7 8 9 9 8 8 8 7 6 7 7 8 8 7 6 7 7 7 5 6 5 5 4 5 5 4 4 5 4 4 5 5 4 3 3 3 2 3 3 3 3 2 2 1 1 1 1 2 1 2 0 1 3 2 2 0 3 2 3 5 4 3 2 1 3 3 3 3 4 4 4 4 5 5 5 5 3 2 0 0 0 1 1 2 2
9 9 8 7 8 8 7 6 6 6 6 7 7 7 5 4 4 5 6 4 3 4 4 4 4 4 4 5 6 5 5 5 4 4 3 3 3 3 3 3 2 2 2 1 0 1 2 3 2 2 4 1 2 4 3 3 3 0 0 1 3 4 4 3 2 2 3 3 3 3 3 3 4 4 5 4 2 2 1 0 0 1 2 2 3
8 7 7 8 7 6 6 7 7 6 6 7 6 5 5 4 3 6 5 5 4 4 4 3 4 4 5 6 6 6 6 6 5 5 3 3 4 4 3 3 2 2 3 2 1 2 2 3 2 3 2 4 2 3 2 3 5 1 4 1 2 1 4 2 3 4 0 2 3 4 3 3 4 4 3 0 0 1 1 0 0 0 1 3 3
8 9 8 8 6 8 7 7 7 7 6 6 6 5 5 4 5 5 5 4 3 4 4 3 3 3 4 4 6 7 6 6 5 5 4 4 4 4 3 3 3 2 2 2 3 3 3 3 3 3 3 3 5 2 3 1 4 4 3 2 3 2 2 3 3 5 2 3 2 2 4 4 3 3 2 1 0 2 1 1 1 1 1 3 4
8 8 8 8 7 7 6 6 5 5 6 6 6 6 6 7 6 6 6 5 5 6 6 6 5 5 5 2 4 6 6 4 5 4 4 4 4 4 4 3 3 3 4 3 2 2 3 3 3 4 5 4 4 3 3 3 2 3 4 3 4 2 3 3 2 4 5 2 4 5 4 4 3 4 3 2 3 3 1 2 2 2 1 1 2
6 7 8 8 9 9 8 8 7 6 6 5 6 6 6 6 8 8 7 7 7 5 4 4 5 5 4 3 4 4 4 6 5 4 4 4 4 4 4 4 3 3 2 2 3 3 4 4 4 3 5 3 3 3 3 4 5 2 2 4 3 2 2 1 2 1 6 5 4 3 5 4 4 3 4 3 3 3 1 2 2 2 1 0 2
2 6 8 7 9 10 9 9 7 7 6 5 6 6 7 6 6 6 6 6 6 6 6 5 4 4 5 4 3 5 4 5 5 4 5 5 4 4 4 3 3 3 2 3 3 3 3 4 4 4 3 4 4 3 3 3 1 3 1 3 3 3 1 2 2 3 2 3 7 4 2 4 4 3 3 4 2 2 2 1 2 2 2 2 2
1 3 3 8 9 9 10 8 8 7 6 6 6 6 6 6 6 6 6 5 5 5 5 5 5 4 5 4 3 4 5 4 5 5 5 5 4 5 4 4 3 3 2 3 3 3 4 5 3 2 4 3 3 2 1 4 2 3 3 2 2 2 3 2 1 2 2 1 5 3 5 4 3 3 3 2 2 0 1 1 1 1 3 4 3
2 1 3 4 8 8 9 9 8 7 7 8 7 6 6 5 5 5 6 5 5 5 6 6 5 5 5 5 4 4 5 5 5 5 4 5 5 5 5 5 5 4 2 3 3 3 4 4 5 5 4 4 3 2 3 4 4 4 2 3 3 3 3 2 0 1 0 2 4 5 5 5 5 5 3 3 2 1 1 1 1 0 1 1 2
4 2 2 3 5 8 8 10 10 8 8 9 8 8 6 6 6 6 6 6 5 5 6 5 5 5 6 5 5 5 4 5 5 5 5 4 5 5 5 5 4 4 3 3 4 4 4 4 4 4 3 4 4 3 3 3 3 3 3 2 5 5 3 2 4 3 3 3 2 4 4 3 3 6 4 3 2 3 1 0 1 2 0 1 2
Wind_Direction
179 158 168 152 146 146 130 126 132 129 132 139 133 124 134 132 132 125 124 124 122 121 119 118 115 115 117 116 114 112 109 109 108 108 107 107 108 107 108 107 105 105 101 101 105 107 106 108 108 109 110 112 114 118 125 129 137 135 134 132 128 126 126 126 128 126 123 119 117 114 104 91 81 80 83 85 86 88 89 94 105 96 43 116 113
163 159 156 153 153 145 122 136 145 132 132 132 128 123 122 140 129 128 126 125 123 120 118 117 116 116 116 116 116 114 112 108 108 105 105 106 105 107 108 109 109 106 107 109 108 107 111 111 111 111 111 110 112 114 116 120 124 128 131 131 127 127 129 130 130 127 120 116 112 102 90 75 73 74 81 85 88 98 101 104 112 99 99 117 116
143 149 151 149 148 139 125 145 136 136 142 141 146 143 156 154 132 125 126 126 123 121 120 119 119 118 117 117 117 116 114 114 109 107 108 107 108 109 110 111 111 112 112 109 108 108 108 111 113 114 114 115 115 115 116 118 121 125 126 127 126 126 128 129 127 129 127 124 119 114 109 104 98 90 90 93 96 105 105 110 117 116 125 121 116
141 145 146 149 144 137 139 146 145 145 142 149 149 150 144 129 126 126 127 128 123 123 122 120 118 120 120 119 119 120 117 115 112 114 114 114 114 115 115 116 120 121 121 121 118 117 114 111 109 109 110 113 115 116 117 119 121 123 126 126 126 125 122 122 123 120 119 118 109 101 74 51 87 101 99 102 108 113 109 115 121 122 119 117 119
135 137 137 130 137 151 141 142 141 143 142 149 146 138 132 131 131 130 132 125 124 123 122 121 121 123 122 121 122 123 121 117 116 117 117 117 115 114 112 105 104 118 125 122 120 119 117 116 114 111 110 110 111 112 114 115 118 120 121 124 125 123 123 125 125 122 115 112 113 109 115 125 118 100 102 101 104 109 113 120 120 120 122 118 118
139 141 138 138 157 161 132 144 146 145 150 151 149 141 138 138 129 129 127 126 125 124 123 123 124 122 119 123 125 117 119 120 122 120 119 116 115 108 107 109 116 120 116 117 118 118 119 118 117 115 114 113 114 114 115 116 118 121 124 127 124 125 126 126 122 117 116 117 112 117 136 170 154 105 105 101 104 106 111 117 119 123 122 126 127
133 134 134 139 150 147 139 150 145 150 148 148 152 140 139 137 133 130 128 128 127 126 126 126 126 124 124 127 123 121 121 124 126 120 118 117 116 115 113 123 128 127 117 115 114 114 115 117 116 116 116 116 116 118 121 122 124 127 131 130 131 129 133 136 133 124 108 91 84 97 103 111 98 107 104 102 99 103 107 114 122 125 128 128 129
129 131 135 137 134 142 143 141 154 141 149 152 148 137 136 140 135 132 130 128 129 129 129 128 127 126 123 121 130 127 137 127 121 116 116 118 119 120 124 131 128 121 118 115 116 116 117 117 116 117 117 120 122 122 124 126 129 131 134 135 139 145 144 146 146 137 120 98 113 79 73 76 106 77 100 101 106 108 108 112 120 130 136 140 140
132 134 136 138 147 150 149 149 148 155 155 155 146 140 138 140 137 134 130 128 129 129 129 129 130 128 130 128 131 128 118 117 116 116 119 120 121 120 119 127 119 119 119 119 119 117 113 113 115 116 120 123 125 128 129 131 133 134 136 139 142 145 148 155 158 155 119 137 147 157 146 70 105 101 116 112 117 116 115 115 119 128 134 139 140
134 135 138 144 156 154 146 148 152 153 146 147 143 139 140 140 137 133 130 128 129 129 130 131 131 129 125 124 122 117 118 118 120 120 119 121 120 120 123 124 125 121 121 123 122 120 119 116 114 115 115 118 124 125 128 130 132 134 134 138 143 146 153 150 165 148 130 148 169 168 173 154 141 113 133 131 124 128 126 125 132 127 131 132 138
132 134 140 148 156 151 147 152 148 149 147 146 146 145 144 144 146 138 135 132 131 131 133 132 131 128 125 122 122 121 122 123 123 123 124 122 123 123 125 128 128 126 132 134 133 126 122 122 119 112 110 112 115 121 117 119 125 128 131 139 139 147 149 159 130 43 124 157 158 179 177 152 135 163 143 133 132 125 119 129 130 120 123 129 130
133 139 144 150 152 149 149 148 143 151 148 150 144 140 142 145 141 139 136 134 134 135 135 133 131 129 128 127 126 127 127 129 130 132 131 129 125 124 126 131 134 134 134 138 132 134 131 130 127 122 122 121 124 117 124 118 114 116 115 120 129 149 170 203 143 133 259 150 162 180 169 131 149 173 147 140 138 128 119 114 113 109 112 119 127
137 141 147 154 146 152 149 149 148 151 150 150 144 143 145 140 139 141 138 137 138 136 135 134 133 133 132 132 132 130 129 129 131 132 133 132 130 130 131 134 140 137 142 142 144 143 142 138 134 141 137 142 126 127 115 120 115 122 106 132 159 194 225 223 126 57 11 159 161 132 126 138 156 172 156 150 144 133 124 125 125 128 121 120 128
138 144 151 146 155 151 151 151 150 150 149 147 145 145 139 137 140 143 139 139 138 137 135 135 135 136 136 136 133 129 129 130 133 133 133 133 133 133 137 142 144 146 149 150 153 149 149 154 166 171 176 167 172 155 156 150 146 150 181 195 205 220 236 272 237 110 18 149 141 131 134 153 170 164 163 160 153 146 140 132 134 134 136 134 134
140 146 146 149 154 152 154 153 152 152 150 146 148 145 143 143 141 144 140 141 137 137 138 139 138 137 136 136 136 135 135 134 134 137 140 139 137 138 141 149 152 156 159 162 161 166 166 183 201 209 218 198 199 218 206 220 215 194 210 224 218 222 240 99 344 64 115 128 142 137 149 165 171 167 166 162 160 152 151 145 134 138 133 143 157
137 140 144 150 148 148 152 155 152 151 151 150 147 147 144 143 142 142 143 141 139 139 139 139 140 142 141 141 140 138 138 139 141 144 146 144 140 142 149 151 157 166 178 177 184 193 201 218 231 236 230 234 227 237 249 247 253 232 244 227 231 236 236 194 100 101 125 120 134 142 156 177 172 175 169 166 164 161 162 152 142 135 149 161 180
138 144 150 151 151 150 151 148 154 155 154 152 150 150 145 145 144 143 143 143 143 140 138 140 140 141 142 142 144 143 143 144 145 148 150 149 150 156 157 162 174 184 189 198 205 216 226 231 239 245 247 249 255 250 245 242 239 237 236 240 229 238 241 228 107 124 141 145 142 153 172 177 178 180 178 173 165 169 165 148 144 141 131 161 199
147 151 153 154 149 144 142 146 150 149 155 154 154 152 149 149 147 145 145 144 143 141 141 139 140 145 146 148 150 150 148 150 155 155 156 158 163 167 170 173 187 201 200 209 215 224 229 236 243 247 252 252 249 245 241 237 230 230 231 229 229 232 241 236 100 124 158 153 152 165 171 178 180 185 185 175 165 166 163 158 158 173 191 196 186
146 153 150 150 148 145 144 139 137 142 141 142 153 155 154 153 149 148 146 148 146 144 144 143 144 146 149 152 155 153 153 156 162 165 167 171 172 178 183 189 197 206 211 211 222 229 236 240 245 252 254 257 251 246 240 231 230 225 224 220 221 223 231 221 118 141 169 155 164 164 175 180 183 186 185 182 169 168 164 190 174 174 178 189 219
148 150 151 152 148 143 138 128 129 125 126 133 148 153 158 155 152 149 151 152 150 148 152 153 150 150 152 157 157 157 158 163 169 174 177 181 183 185 199 206 208 214 213 220 230 236 242 244 249 254 259 260 257 248 234 223 211 208 204 205 205 210 216 190 132 152 152 172 165 167 186 184 185 185 186 179 177 179 183 193 175 168 160 181 216
151 152 153 153 151 145 139 131 134 133 134 131 133 146 165 157 155 154 156 155 156 158 161 158 159 160 158 161 155 109 50 320 178 181 197 188 195 199 211 215 222 219 226 231 239 244 247 252 255 258 258 256 253 246 229 201 195 196 201 203 206 201 202 192 147 156 166 173 166 176 187 185 188 188 189 187 185 194 192 193 185 169 168 190 220
156 157 157 155 151 153 147 139 138 144 143 137 142 158 157 152 143 158 155 159 163 164 159 146 148 155 170 161 112 164 170 244 222 197 218 220 215 219 221 222 228 234 242 247 252 253 257 261 266 270 270 270 264 262 274 233 203 194 202 206 187 200 175 144 147 156 164 176 170 183 183 185 189 192 192 193 190 200 201 200 181 178 191 194 204
159 158 159 158 155 149 145 147 150 155 152 151 156 145 140 130 138 144 159 160 163 150 123 134 120 154 134 146 167 167 178 198 226 227 209 222 227 233 228 230 237 243 250 254 258 262 266 270 271 274 274 270 258 252 266 289 293 238 174 114 127 119 135 146 153 157 169 178 179 185 182 185 189 193 194 194 200 202 202 202 187 191 200 204 205
166 164 159 152 154 155 151 153 156 158 156 160 150 139 143 132 137 140 142 144 124 137 159 158 185 183 183 179 167 160 183 316 275 241 233 223 222 234 235 238 244 248 251 252 268 274 271 273 275 270 268 264 245 229 244 264 272 284 201 156 138 157 155 155 155 161 166 180 186 188 184 185 189 195 197 196 199 201 199 199 197 205 210 208 207
166 155 152 161 161 157 152 157 158 163 160 164 159 152 147 140 153 149 157 130 141 154 173 185 190 194 188 172 155 166 209 253 276 293 282 290 240 227 254 262 266 282 283 299 279 273 281 274 276 286 262 246 238 234 243 245 244 250 203 169 158 159 160 151 156 163 175 178 180 193 189 188 192 198 200 199 200 202 200 198 201 206 211 212 214
154 166 171 161 167 164 160 161 164 169 168 164 164 160 151 155 160 162 158 156 164 178 186 189 191 191 182 173 183 168 238 268 287 281 291 287 266 248 247 301 304 279 279 261 255 250 261 267 254 248 252 245 235 218 229 229 233 246 217 199 151 166 170 163 160 174 177 178 186 193 195 191 195 202 204 202 203 205 206 203 205 210 212 212 218
172 175 170 168 167 166 164 163 168 171 169 157 156 159 164 164 157 162 165 177 180 183 198 195 189 185 186 194 195 212 258 268 273 286 286 298 278 264 255 220 247 255 246 236 248 248 246 250 245 245 247 231 239 231 216 227 219 214 198 208 132 124 104 160 207 179 180 185 193 196 200 196 197 202 207 205 206 209 212 212 212 215 214 216 221
168 173 176 172 171 172 166 166 169 169 167 157 153 161 161 158 172 174 170 185 176 191 204 200 196 198 197 215 203 185 224 260 274 280 283 305 277 255 225 222 215 247 275 243 241 268 260 237 240 241 250 242 250 240 212 225 211 191 136 113 121 118 121 150 223 209 195 202 198 203 205 202 200 202 208 209 208 212 217 222 221 221 221 223 223
173 176 177 175 176 171 167 170 171 168 153 154 159 158 162 164 175 169 171 187 180 187 192 190 202 216 212 202 230 205 228 250 279 284 307 289 257 221 177 186 193 252 279 304 151 247 271 256 237 235 220 241 215 128 133 92 98 100 138 133 154 124 185 186 231 245 186 192 210 224 216 211 206 205 208 211 213 214 219 223 227 228 227 228 227
180 174 177 181 173 169 172 174 175 164 154 153 159 158 164 166 160 163 178 178 185 179 178 183 201 212 217 193 229 228 230 225 253 278 281 249 204 199 203 195 185 227 218 311 266 211 234 254 256 201 173 218 133 140 127 126 120 134 158 166 201 185 184 218 262 245 262 223 230 236 242 226 217 213 212 213 214 218 219 222 226 230 232 232 233
168 177 180 181 175 167 176 176 172 167 156 155 159 158 156 163 159 162 178 164 187 177 165 178 192 213 214 183 206 237 236 242 245 259 253 206 198 197 167 179 262 263 250 233 237 248 221 283 338 129 150 126 113 135 132 136 159 190 199 189 199 186 191 198 215 242 235 218 213 232 255 254 237 225 220 214 215 219 220 221 226 229 232 234 235
174 178 181 177 173 175 176 175 172 169 164 160 157 158 158 162 156 160 170 170 183 183 175 172 193 211 204 181 215 222 241 247 242 243 216 204 195 187 150 238 233 270 280 289 314 355 21 19 127 135 123 120 121 112 120 137 190 219 209 243 235 219 218 194 215 230 240 238 229 223 230 251 265 249 229 221 216 216 220 222 225 227 231 234 235
179 178 172 172 175 175 176 177 170 167 167 166 168 167 154 157 156 169 172 173 188 180 196 190 211 227 204 172 228 225 237 246 253 250 205 189 180 160 187 232 238 260 294 335 338 9 24 73 47 65 103 100 108 128 151 210 212 230 241 241 263 266 258 205 245 252 250 251 235 232 242 262 265 265 255 240 230 225 219 218 223 225 228 233 234
166 170 162 173 170 172 175 172 172 168 170 166 165 166 164 159 155 161 169 163 187 192 212 189 210 241 230 223 242 245 237 240 246 254 173 181 170 180 180 226 287 312 332 337 343 11 13 75 41 49 55 119 158 176 175 209 267 290 265 251 267 267 239 248 252 257 256 257 250 246 262 276 268 261 258 262 254 243 238 224 217 220 224 230 233
157 164 170 167 167 170 166 175 171 167 168 171 174 171 165 158 155 160 152 167 182 192 211 200 198 237 243 234 247 258 240 234 244 175 187 171 167 165 189 211 261 277 291 300 81 344 274 92 119 95 8 31 323 261 243 262 265 263 254 232 258 272 284 272 268 279 276 269 280 279 279 268 263 256 253 260 263 262 255 240 220 216 219 224 231
162 167 162 159 165 161 165 166 165 167 169 173 173 169 163 155 156 163 149 165 169 185 200 208 198 228 250 248 240 257 243 235 182 214 176 169 166 171 190 192 214 29 272 294 98 274 319 29 13 116 17 336 279 287 299 261 278 273 273 269 263 273 276 269 274 282 282 289 284 283 279 280 283 280 273 255 270 274 266 255 229 217 214 219 226
157 155 158 159 156 161 163 161 165 169 162 166 161 163 153 148 153 162 161 158 166 177 195 211 208 211 231 249 247 253 252 230 173 191 161 157 162 184 180 165 154 222 293 256 226 256 271 52 346 14 123 291 298 256 262 264 278 272 286 280 272 270 261 258 264 271 300 290 290 287 284 279 273 282 292 283 271 265 264 258 238 221 216 206 230
157 156 159 161 164 165 166 162 161 162 158 159 160 155 153 146 147 151 162 164 169 169 186 188 227 221 220 247 253 250 247 234 213 168 153 156 167 178 157 154 184 240 189 234 238 288 58 71 356 331 24 358 295 293 265 268 260 268 270 270 272 272 270 275 271 272 281 287 293 299 287 280 287 278 276 264 259 266 266 259 237 223 218 199 217
158 159 162 159 157 164 159 159 160 150 151 148 140 136 137 135 128 140 153 156 154 141 160 188 224 242 249 267 282 250 236 229 220 161 120 131 152 151 165 188 169 174 161 186 337 329 17 38 42 319 320 244 246 235 236 230 250 253 266 269 274 274 277 269 273 283 275 269 278 281 300 291 287 275 263 255 256 260 262 261 266 246 226 217 200
155 158 157 154 156 159 153 145 158 148 141 139 138 138 146 159 147 135 138 171 179 180 170 190 213 229 235 250 268 257 229 220 219 162 151 130 148 181 181 204 174 176 156 182 254 291 262 320 327 308 321 327 288 264 250 243 274 279 271 279 270 276 279 273 272 260 262 258 256 276 277 276 264 266 264 266 270 269 259 251 239 231 227 223 200
156 160 157 164 164 170 161 169 160 156 153 153 157 159 160 152 137 170 171 180 182 190 190 184 209 226 231 244 259 245 220 212 214 165 156 170 177 195 195 208 177 173 183 208 215 235 245 216 300 8 315 314 315 311 280 89 348 312 296 276 294 276 276 272 263 262 250 261 265 260 259 272 272 273 277 277 264 256 254 267 243 222 226 228 199
161 162 166 167 164 167 175 170 156 169 166 166 163 172 182 178 168 179 165 172 176 181 196 196 206 208 222 236 248 238 214 204 205 178 171 167 165 183 193 204 187 185 204 245 216 237 295 307 328 337 236 276 279 266 256 37 338 244 322 327 329 321 290 321 276 262 253 259 260 261 271 271 285 291 292 268 279 328 293 328 136 173 140 112 145
153 163 161 151 155 163 171 167 174 177 179 171 163 175 185 173 152 161 162 149 189 192 189 185 191 200 213 228 233 225 206 202 202 184 173 180 183 186 195 198 179 186 185 220 347 288 280 271 265 216 300 308 260 274 269 176 243 275 220 329 309 2 327 340 307 274 266 275 281 278 287 290 295 305 291 284 14 21 327 30 89 118 106 114 110
150 149 156 160 161 166 167 168 178 181 180 187 175 173 172 162 150 142 155 152 167 186 186 168 179 192 220 229 226 206 202 197 192 185 182 180 185 199 192 183 198 193 179 212 243 260 260 266 261 247 226 299 319 302 264 209 208 246 320 217 265 32 330 315 314 292 307 281 281 277 285 287 288 282 302 345 46 146 260 199 126 182 133 110 103
163 161 161 166 171 175 178 176 179 182 180 186 177 162 155 145 142 104 130 113 109 155 167 190 187 201 222 227 215 197 196 193 188 181 183 186 192 199 191 193 185 205 188 204 221 240 244 241 240 255 228 222 279 291 310 217 240 203 181 335 341 14 250 262 334 293 324 311 288 289 286 283 288 299 319 257 254 225 208 124 127 69 61 105 133
166 165 162 164 159 168 174 179 183 189 189 191 170 160 166 156 152 146 154 162 157 163 186 193 190 198 209 224 204 197 189 189 188 184 187 184 196 199 197 188 190 198 206 208 234 275 284 275 253 230 256 226 226 283 293 308 270 225 213 200 170 203 275 274 30 302 319 242 277 283 281 288 292 296 298 265 246 227 204 153 138 124 88 111 161
159 158 159 161 159 166 173 179 185 192 195 192 170 161 161 169 172 175 171 174 168 186 181 188 183 199 193 219 199 205 193 184 191 188 196 200 195 197 189 191 198 205 217 210 254 248 257 261 262 234 235 232 182 234 282 288 339 328 226 253 267 251 165 90 266 299 330 318 329 313 315 310 298 304 305 280 247 220 186 166 153 132 75 266 189
126 153 164 163 166 171 173 179 183 188 191 183 178 171 171 170 171 173 171 174 178 181 179 185 182 179 187 207 196 200 201 194 186 193 201 206 196 200 195 189 201 212 207 219 233 254 268 276 263 242 229 197 178 202 250 286 313 278 311 303 285 278 249 265 195 218 231 289 313 312 278 293 318 299 265 276 271 236 154 132 124 151 153 228 243
328 158 140 171 172 174 172 174 182 183 189 182 182 183 176 173 177 174 177 179 174 176 181 179 179 183 183 206 201 210 202 204 197 197 208 206 202 199 200 197 199 217 227 232 239 247 248 262 265 224 213 218 196 189 184 266 242 246 315 318 335 298 306 265 291 125 182 266 287 284 305 326 346 304 332 303 280 224 111 157 166 196 183 190 201
253 210 112 153 173 169 172 175 182 187 185 185 185 188 181 172 180 188 184 186 181 171 167 185 183 180 187 201 207 211 211 205 208 210 207 209 203 201 199 199 199 207 223 236 258 273 260 238 229 210 214 222 243 192 207 243 253 276 258 265 306 324 350 348 271 199 343 203 243 293 301 312 322 296 317 327 23 73 125 125 99 254 234 188 205
226 190 144 155 156 175 174 177 188 185 183 183 182 188 184 183 191 193 194 193 191 178 173 185 184 180 190 201 201 209 211 211 205 213 205 206 210 200 199 203 199 200 213 234 251 252 251 236 218 236 230 220 236 219 238 251 254 268 281 252 256 255 233 248 269 249 228 262 311 288 293 264 248 303 291 332 354 42 31 73 72 301 201 217 244